Location: Kearney
(40.6990°N, 99.0810°W)
Time: 19:27:18
(UTC-05:00)

Gblst 52 Del rocket - Pass Details

Date: 18 December 2017
Orbit: 806 x 1365 km, 51.5° (Epoch: 20 July)

Event Time Altitude Azimuth Distance (km) Brightness Sun altitude
Rises 18:30:59 0° 306° (NW) 3,335 7.8 -14.6°
Reaches altitude 10° 18:33:23 10° 308° (NW) 2,426 7.0 -15.0°
Maximum altitude 18:39:00 72° 33° (NNE) 915 4.2 -16.0°
Enters shadow 18:44:16 15° 117° (ESE) 2,325 6.1 -17.0°
